Location: Plymouth
(43.7570°N, 71.6890°W)
Time: 14:24:05
(UTC-04:00)

Amateur Radio Satellites - All Passes

Search period start: 21 October 2014 13:54
Search period end: 22 October 2014 13:54
Location: Plymouth, 43.7570°N, 71.6890°W

Satellite Date Start Highest point End Downlink Frequencies (MHz)
Time Altitude Azimuth
Uribyol 2 21 Oct 13:57:18 14:02:30 76° 74° (ENE) 14:07:44 436.500 FM
Gurwin Techsat 1B 21 Oct 13:59:57 14:04:52 40° 68° (ENE) 14:09:49 435.225 FM
ITAMSAT 1 21 Oct 14:02:20 14:07:31 79° 74° (ENE) 14:12:46 435.822 SSB
ISS 21 Oct 14:02:59 14:06:05 36° 140° (SE) 14:09:11 145.800 FM
AO-Echo 21 Oct 14:10:57 14:15:46 71° 258° (WSW) 14:20:48 ?
TMSAT-1 21 Oct 14:13:44 14:18:38 40° 68° (ENE) 14:23:34 436.925 FM
SO-50 21 Oct 14:30:01 14:34:30 68° 307° (NW) 14:39:08 436.795 FM
Sapphire 21 Oct 14:32:15 14:37:29 49° 246° (WSW) 14:42:40 437.095 MHz 1200 baud AX-25 AFSK
UOSAT-12 21 Oct 14:36:18 14:39:04 16° 109° (ESE) 14:41:53 437.025 FM, 437.400 FM
AO-7 21 Oct 14:40:10 14:47:13 33° 56° (NE) 14:54:16 29.400 - 29.500 MHz
Oscar 19 21 Oct 14:40:38 14:44:30 21° 267° (W) 14:48:23 437.125 CW, 437.150 USB
AO-27 21 Oct 14:47:23 14:52:17 41° 262° (W) 14:57:13 436.795 MHz FM
PCSat 21 Oct 14:55:40 15:00:19 29° 251° (WSW) 15:04:56 145.825 MHz
JAS-1B 21 Oct 15:06:38 15:11:01 20° 267° (W) 15:15:12 435.800 - 435.900 CW/SSB
JAS-2 21 Oct 15:36:21 15:39:08 13° 50° (NE) 15:42:02 435.800 - 435.900 CW/SSB, 435.910 FM
ISS 21 Oct 15:39:37 15:42:46 38° 338° (NNW) 15:45:56 145.800 FM
Uribyol 2 21 Oct 15:39:49 15:42:32 14° 271° (W) 15:45:17 436.500 FM
Gurwin Techsat 1B 21 Oct 15:40:26 15:44:56 28° 266° (W) 15:49:28 435.225 FM
Oscar 10/S400 21 Oct 15:43:58 16:01:32 47° 161° (SSE) 16:43:51 145.825 - 145.975 CW/USB, Beacon 145.810 USB
ITAMSAT 1 21 Oct 15:45:07 15:47:37 14° 271° (W) 15:50:09 435.822 SSB
KITSAT 1 21 Oct 15:47:10 15:53:24 24° 330° (NNW) 15:59:40 435.175 FM
Uosat F 21 Oct 15:52:28 15:57:18 50° 70° (ENE) 16:02:11 435.120 FM
TMSAT-1 21 Oct 15:54:08 15:58:39 28° 265° (W) 16:03:11 436.925 FM
SO-50 21 Oct 16:13:32 16:15:58 14° 328° (NNW) 16:18:27 436.795 FM
UOSAT-12 21 Oct 16:14:03 16:18:40 67° 307° (NW) 16:23:24 437.025 FM, 437.400 FM
Hamsat 21 Oct 16:21:30 16:22:49 11° 61° (ENE) 16:24:08 145.90 MHz
Saudisat 1A 21 Oct 16:30:15 16:34:20 35° 47° (NE) 16:38:24 436.775 MHz
AO-7 21 Oct 16:31:18 16:39:29 65° 256° (WSW) 16:47:44 29.400 - 29.500 MHz
AO-40 21 Oct 16:39:10 22:59:20 38° 185° (S) 04:30:22 Beacon 2401.320
JAS-2 21 Oct 17:17:03 17:22:48 71° 72° (ENE) 17:29:23 435.800 - 435.900 CW/SSB, 435.910 FM
ISS 21 Oct 17:17:30 17:20:07 21° 358° (N) 17:22:43 145.800 FM
OPAL 21 Oct 17:20:00 17:24:10 26° 97° (E) 17:28:16 ?
Uosat F 21 Oct 17:32:41 17:36:22 20° 267° (W) 17:40:05 435.120 FM
KITSAT 1 21 Oct 17:48:23 17:52:24 14° 360° (N) 17:56:25 435.175 FM
Hamsat 21 Oct 17:53:57 17:58:11 76° 258° (WSW) 18:02:24 145.90 MHz
UOSAT-12 21 Oct 17:57:10 17:59:44 14° 328° (NNW) 18:02:19 437.025 FM, 437.400 FM
Saudisat 1A 21 Oct 18:09:58 18:13:49 29° 245° (WSW) 18:17:38 436.775 MHz
AO-7 21 Oct 18:31:25 18:33:52 11° 275° (W) 18:36:20 29.400 - 29.500 MHz
SO-67 21 Oct 18:31:37 18:34:43 32° 72° (ENE) 18:37:50 435.3500 MHz FM
ISS 21 Oct 18:54:31 18:57:32 30° 18° (NNE) 19:00:32 145.800 FM
STRAND 1 21 Oct 18:58:12 19:02:42 30° 95° (E) 19:07:10 ?
OPAL 21 Oct 18:58:32 19:03:09 39° 294° (WNW) 19:07:43 ?
JAS-2 21 Oct 19:04:45 19:08:43 19° 274° (W) 19:13:00 435.800 - 435.900 CW/SSB, 435.910 FM
HO-68 21 Oct 19:19:14 19:24:45 25° 56° (NE) 19:30:16 435.675 MHz FM
KITSAT 1 21 Oct 19:45:11 19:51:25 23° 30° (NNE) 19:57:37 435.175 FM
SO-67 21 Oct 20:05:47 20:07:48 15° 268° (W) 20:09:50 435.3500 MHz FM
ISS 21 Oct 20:31:06 20:34:25 59° 216° (SW) 20:37:42 145.800 FM
STRAND 1 21 Oct 20:37:13 20:41:55 36° 293° (WNW) 20:46:36 ?
ZACube-1 21 Oct 20:39:52 20:40:02 10° 59° (ENE) 20:40:12 437.345 MHz
UKube-1 21 Oct 20:47:52 20:51:38 29° 67° (ENE) 20:55:25 145.840 MHz, 145.915 MHz
HO-68 21 Oct 21:04:37 21:11:46 74° 255° (WSW) 21:18:59 435.675 MHz FM
RS-15 21 Oct 21:19:10 21:27:10 24° 101° (ESE) 21:35:06 29.354 - 29.394 USB, Beacon 29.352 USB
SO-50 21 Oct 21:20:16 21:24:18 26° 42° (NE) 21:28:21 436.795 FM
FUNcube-1 21 Oct 21:21:25 21:25:12 26° 67° (ENE) 21:28:57 145.950 - 145.970 MHz USB
Oscar 11 21 Oct 21:31:58 21:36:17 72° 75° (ENE) 21:40:37 145.825 FM, Beacon 2401.500 USB
KITSAT 1 21 Oct 21:40:16 21:48:22 71° 55° (NE) 21:56:24 435.175 FM
ZACube-1 21 Oct 22:11:03 22:15:40 81° 76° (ENE) 22:20:14 437.345 MHz
UKube-1 21 Oct 22:24:04 22:27:47 27° 264° (W) 22:31:32 145.840 MHz, 145.915 MHz
FUNcube-1 21 Oct 22:57:13 23:01:25 35° 263° (W) 23:05:36 145.950 - 145.970 MHz USB
HO-68 21 Oct 22:57:43 23:00:39 13° 274° (W) 23:03:36 435.675 MHz FM
SO-50 21 Oct 23:00:25 23:05:09 54° 241° (WSW) 23:09:54 436.795 FM
UOSAT-12 21 Oct 23:02:55 23:06:49 25° 41° (NE) 23:10:40 437.025 FM, 437.400 FM
Oscar 11 21 Oct 23:11:51 23:12:58 11° 271° (W) 23:14:04 145.825 FM, Beacon 2401.500 USB
RS-15 21 Oct 23:26:58 23:38:00 89° 303° (WNW) 23:49:01 29.354 - 29.394 USB, Beacon 29.352 USB
MaSat-1 21 Oct 23:35:27 23:37:56 15° 106° (ESE) 23:40:19 437.345 MHz
KITSAT 1 21 Oct 23:36:34 23:43:04 28° 254° (WSW) 23:49:34 435.175 FM
ZACube-1 21 Oct 23:51:33 23:52:36 11° 272° (W) 23:53:38 437.345 MHz
UOSAT-12 22 Oct 00:42:39 00:47:16 54° 241° (WSW) 00:51:47 437.025 FM, 437.400 FM
JAS-1B 22 Oct 00:56:50 01:00:07 14° 90° (E) 01:03:36 435.800 - 435.900 CW/SSB
MaSat-1 22 Oct 01:09:19 01:13:25 50° 300° (WNW) 01:17:08 437.345 MHz
Oscar 19 22 Oct 01:11:29 01:14:31 16° 90° (E) 01:17:33 437.125 CW, 437.150 USB
RS-15 22 Oct 01:42:15 01:51:56 35° 331° (NNW) 02:01:45 29.354 - 29.394 USB, Beacon 29.352 USB
Oscar 16 22 Oct 01:55:20 02:00:11 41° 98° (E) 02:04:59 437.025 USB, Beacon 2401.1428
Uribyol 2 22 Oct 02:09:25 02:13:37 24° 94° (E) 02:17:47 436.500 FM
ITAMSAT 1 22 Oct 02:14:31 02:18:50 25° 94° (E) 02:23:06 435.822 SSB
Gurwin Techsat 1B 22 Oct 02:16:15 02:19:00 14° 89° (E) 02:21:44 435.225 FM
AO-Echo 22 Oct 02:16:46 02:21:38 36° 96° (E) 02:26:29 ?
TMSAT-1 22 Oct 02:29:42 02:32:23 14° 89° (E) 02:35:02 436.925 FM
JAS-1B 22 Oct 02:44:54 02:51:21 83° 105° (ESE) 02:59:03 435.800 - 435.900 CW/SSB
Oscar 19 22 Oct 02:49:16 02:54:21 67° 287° (WNW) 02:59:24 437.125 CW, 437.150 USB
AO-27 22 Oct 02:58:40 03:03:54 65° 102° (ESE) 03:09:04 436.795 MHz FM
Sapphire 22 Oct 03:33:59 03:37:28 18° 105° (ESE) 03:40:58 437.095 MHz 1200 baud AX-25 AFSK
Oscar 16 22 Oct 03:35:06 03:39:20 27° 296° (WNW) 03:43:33 437.025 USB, Beacon 2401.1428
Uribyol 2 22 Oct 03:48:20 03:53:17 45° 291° (WNW) 03:58:12 436.500 FM
ITAMSAT 1 22 Oct 03:53:32 03:58:28 43° 291° (WNW) 04:03:23 435.822 SSB
Gurwin Techsat 1B 22 Oct 03:54:14 03:59:34 78° 286° (WNW) 04:04:52 435.225 FM
PCSat 22 Oct 03:55:31 04:00:08 29° 109° (ESE) 04:04:46 145.825 MHz
AO-Echo 22 Oct 03:55:38 04:00:18 32° 293° (WNW) 04:04:58 ?
RS-15 22 Oct 04:00:11 04:08:45 25° 6° (N) 04:17:29 29.354 - 29.394 USB, Beacon 29.352 USB
Uosat F 22 Oct 04:00:30 04:03:02 14° 89° (E) 04:05:34 435.120 FM
TMSAT-1 22 Oct 04:07:35 04:12:54 79° 286° (WNW) 04:18:12 436.925 FM
JAS-2 22 Oct 04:27:20 04:29:56 12° 82° (E) 04:32:33 435.800 - 435.900 CW/SSB, 435.910 FM
AO-7 22 Oct 04:31:22 04:39:08 41° 99° (E) 04:46:52 29.400 - 29.500 MHz
OPAL 22 Oct 04:35:45 04:40:48 57° 69° (ENE) 04:45:49 ?
JAS-1B 22 Oct 04:37:11 04:41:29 19° 301° (WNW) 04:46:13 435.800 - 435.900 CW/SSB
AO-27 22 Oct 04:39:20 04:42:53 19° 300° (WNW) 04:46:26 436.795 MHz FM
Sapphire 22 Oct 05:14:54 05:20:17 70° 303° (WNW) 05:25:43 437.095 MHz 1200 baud AX-25 AFSK
Gurwin Techsat 1B 22 Oct 05:36:44 05:38:38 12° 304° (NW) 05:40:32 435.225 FM
Uosat F 22 Oct 05:37:19 05:42:22 74° 287° (WNW) 05:47:24 435.120 FM
PCSat 22 Oct 05:38:11 05:43:21 44° 308° (NW) 05:48:33 145.825 MHz
Hamsat 22 Oct 05:39:15 05:42:02 17° 92° (E) 05:44:48 145.90 MHz
TMSAT-1 22 Oct 05:49:59 05:51:57 12° 304° (NW) 05:53:54 436.925 FM
JAS-2 22 Oct 06:08:36 06:16:15 63° 101° (E) 06:24:00 435.800 - 435.900 CW/SSB, 435.910 FM
RS-15 22 Oct 06:14:26 06:24:56 45° 39° (NE) 06:35:47 29.354 - 29.394 USB, Beacon 29.352 USB
STRAND 1 22 Oct 06:15:15 06:20:10 49° 70° (ENE) 06:25:08 ?
OPAL 22 Oct 06:16:22 06:20:00 19° 266° (W) 06:23:38 ?
AO-7 22 Oct 06:24:09 06:32:01 49° 298° (WNW) 06:39:53 29.400 - 29.500 MHz
Sapphire 22 Oct 07:01:34 07:04:44 15° 324° (NW) 07:07:55 437.095 MHz 1200 baud AX-25 AFSK
Hamsat 22 Oct 07:14:13 07:18:11 43° 288° (WNW) 07:22:09 145.90 MHz
Uosat F 22 Oct 07:19:08 07:20:16 11° 305° (NW) 07:21:24 435.120 FM
SO-67 22 Oct 07:26:16 07:29:24 31° 97° (E) 07:32:31 435.3500 MHz FM
PCSat 22 Oct 07:26:43 07:28:15 11° 331° (NNW) 07:29:46 145.825 MHz
JAS-2 22 Oct 07:54:16 08:00:47 32° 298° (WNW) 08:07:28 435.800 - 435.900 CW/SSB, 435.910 FM
STRAND 1 22 Oct 07:55:43 07:59:37 22° 267° (W) 08:03:33 ?
Saudisat 1A 22 Oct 08:16:51 08:21:05 51° 119° (ESE) 08:25:22 436.775 MHz
AO-7 22 Oct 08:19:42 08:22:49 13° 320° (NW) 08:25:57 29.400 - 29.500 MHz
RS-15 22 Oct 08:26:58 08:37:57 67° 243° (WSW) 08:49:25 29.354 - 29.394 USB, Beacon 29.352 USB
HO-68 22 Oct 08:32:09 08:37:11 20° 90° (E) 08:42:10 435.675 MHz FM
SO-67 22 Oct 08:59:58 09:02:08 16° 293° (WNW) 09:04:18 435.3500 MHz FM
MaSat-1 22 Oct 09:19:32 09:21:53 24° 55° (NE) 09:24:03 437.345 MHz
Oscar 11 22 Oct 09:20:24 09:22:00 12° 89° (E) 09:23:36 145.825 FM, Beacon 2401.500 USB
Saudisat 1A 22 Oct 09:57:23 10:00:55 23° 318° (NW) 10:04:28 436.775 MHz
ZACube-1 22 Oct 10:00:51 10:03:03 14° 90° (E) 10:05:13 437.345 MHz
UKube-1 22 Oct 10:10:11 10:14:23 43° 99° (E) 10:18:33 145.840 MHz, 145.915 MHz
HO-68 22 Oct 10:18:25 10:25:38 80° 289° (WNW) 10:32:49 435.675 MHz FM
RS-15 22 Oct 10:42:51 10:48:06 15° 264° (W) 10:53:27 29.354 - 29.394 USB, Beacon 29.352 USB
FUNcube-1 22 Oct 10:44:53 10:48:57 40° 98° (E) 10:52:54 145.950 - 145.970 MHz USB
Oscar 11 22 Oct 10:54:21 10:58:38 66° 286° (WNW) 11:02:53 145.825 FM, Beacon 2401.500 USB
ZACube-1 22 Oct 11:35:37 11:39:50 55° 287° (WNW) 11:43:56 437.345 MHz
Oscar 16 22 Oct 11:39:52 11:40:12 10° 55° (NE) 11:40:33 437.025 USB, Beacon 2401.1428
UKube-1 22 Oct 11:47:08 11:50:16 20° 296° (WNW) 11:53:24 145.840 MHz, 145.915 MHz
JAS-1B 22 Oct 11:47:11 11:49:06 12° 54° (NE) 11:51:00 435.800 - 435.900 CW/SSB
HO-68 22 Oct 12:07:46 12:12:16 18° 309° (NW) 12:16:45 435.675 MHz FM
KITSAT 1 22 Oct 12:10:11 12:17:32 40° 110° (ESE) 12:24:54 435.175 FM
Sapphire 22 Oct 12:18:50 12:23:10 23° 43° (NE) 12:27:29 437.095 MHz 1200 baud AX-25 AFSK
FUNcube-1 22 Oct 12:21:58 12:25:02 20° 296° (WNW) 12:28:04 145.950 - 145.970 MHz USB
Oscar 19 22 Oct 12:29:14 12:33:32 27° 65° (ENE) 12:37:49 437.125 CW, 437.150 USB
AO-27 22 Oct 12:41:21 12:44:29 16° 59° (ENE) 12:47:39 436.795 MHz FM
PCSat 22 Oct 12:41:26 12:46:23 34° 49° (NE) 12:51:18 145.825 MHz
Oscar 16 22 Oct 13:13:28 13:18:36 69° 73° (ENE) 13:23:44 437.025 USB, Beacon 2401.1428
ISS 22 Oct 13:14:33 13:17:10 22° 135° (SE) 13:19:48 145.800 FM
SO-50 22 Oct 13:16:40 13:20:46 36° 116° (ESE) 13:24:59 436.795 FM
Uribyol 2 22 Oct 13:28:20 13:33:13 42° 68° (ENE) 13:38:08 436.500 FM
AO-Echo 22 Oct 13:31:02 13:35:43 49° 70° (ENE) 13:40:34 ?
JAS-1B 22 Oct 13:32:51 13:38:54 79° 73° (ENE) 13:44:35 435.800 - 435.900 CW/SSB
ITAMSAT 1 22 Oct 13:33:37 13:38:31 44° 69° (ENE) 13:43:28 435.822 SSB
Gurwin Techsat 1B 22 Oct 13:38:02 13:42:24 27° 64° (ENE) 13:46:46 435.225 FM
AO-7 22 Oct 13:43:58 13:48:29 16° 44° (NE) 13:52:59 29.400 - 29.500 MHz
